Dewpoint
48 49 49 50 50 50 49 44 35 42 44 36 36 30 30 32 26 29 28 26 23 22 23 22 23 30 33 27 27 25 25 27 23 23 26 25 25 25 26 31 29 30 29 28
48 48 49 50 50 50 47 40 39 44 41 30 30 32 31 31 29 27 26 25 24 23 23 22 36 35 37 38 35 26 27 23 25 25 24 24 23 24 26 29 34 29 29 30
47 48 49 48 49 50 48 38 32 39 41 34 29 29 30 30 31 29 28 26 25 22 23 24 34 35 37 41 40 39 32 26 22 23 26 26 26 24 24 28 28 28 32 31
47 48 48 49 49 50 48 37 33 37 32 33 32 28 28 28 29 28 26 25 26 25 22 25 27 35 40 41 41 36 32 24 24 25 26 26 27 27 25 24 27 29 30 30
48 48 48 47 47 48 46 32 35 37 30 34 33 32 29 27 26 27 25 24 25 25 23 22 27 38 39 39 42 39 34 28 27 25 25 26 27 28 27 24 28 29 30 29
47 47 46 47 47 47 44 41 39 35 33 32 32 30 29 30 29 29 26 26 25 24 25 28 43 44 44 43 41 40 37 32 31 25 26 25 26 26 26 27 25 25 23 24
46 46 46 46 46 47 44 41 41 36 33 32 30 30 30 30 31 30 28 28 26 25 41 45 43 41 39 39 40 44 39 36 33 28 29 24 27 27 25 25 25 23 21 21
45 44 44 45 45 46 45 42 41 37 32 33 30 30 30 30 31 30 30 28 28 27 23 29 34 33 34 35 38 40 41 39 32 28 28 28 27 25 26 25 25 24 23 22
45 45 45 45 45 45 45 44 43 41 35 34 31 30 30 29 29 30 29 31 33 32 25 28 24 26 31 31 32 39 38 41 34 31 27 24 30 31 32 31 25 29 30 28
46 46 46 45 45 45 44 43 43 40 34 37 34 31 30 31 30 29 29 30 33 33 28 27 27 30 31 28 28 29 32 33 32 32 32 32 32 31 34 26 27 32 32 31
46 46 46 46 46 46 45 43 44 40 37 39 38 39 38 33 33 30 32 32 35 35 28 27 27 25 28 28 28 32 31 31 30 33 30 28 38 35 27 31 33 35 34 32
45 46 46 46 46 45 46 42 45 44 41 41 45 44 44 44 42 39 35 32 32 36 33 32 31 27 29 26 24 31 32 33 34 34 33 39 39 43 42 42 41 39 38 38
45 45 46 46 46 46 46 43 44 43 40 40 41 38 44 45 44 45 39 38 37 40 41 38 35 27 32 26 25 26 32 35 34 35 35 32 34 40 41 44 43 44 39 43
45 45 46 46 46 46 46 43 44 43 40 34 38 43 44 45 44 44 46 44 43 42 43 38 37 35 34 28 31 30 32 33 32 34 36 37 36 36 40 41 44 41 42 37
45 45 45 46 46 46 45 46 45 45 38 32 36 41 41 43 43 43 44 44 42 43 37 33 34 36 35 37 35 31 30 27 32 35 38 37 38 41 42 42 39 40 40 41
44 45 46 46 46 46 45 39 45 47 46 38 32 39 37 41 44 43 42 43 43 42 40 38 41 41 36 29 30 31 30 29 28 27 35 35 38 39 40 40 41 41 41 42
45 45 45 45 45 45 40 37 41 46 45 39 31 31 36 37 39 39 39 41 42 41 41 39 39 39 39 30 29 38 40 40 40 41 40 39 40 39 39 39 40 40 40 40
45 46 45 45 45 44 41 43 45 46 40 36 28 28 34 38 35 35 39 38 40 41 39 39 39 41 39 30 33 36 37 39 40 39 40 39 39 39 38 38 38 38 38 40
44 44 44 43 42 38 40 43 44 45 41 32 30 28 29 39 37 36 37 39 30 40 35 37 38 35 29 31 32 33 35 36 37 40 40 40 40 39 37 37 37 37 37 35
44 43 40 35 40 43 42 41 38 38 39 37 29 34 30 37 35 35 32 30 29 31 34 40 34 29 34 32 33 33 34 35 37 38 37 37 38 39 37 36 35 33 31 29
41 38 36 40 44 40 37 30 31 34 30 32 32 34 34 39 33 33 33 31 31 26 30 33 31 25 28 32 32 31 32 33 33 35 35 35 35 35 34 32 31 29 28 26
40 39 41 40 38 35 31 30 32 28 28 33 33 32 37 37 39 34 34 31 32 28 36 30 22 25 29 31 30 30 30 30 30 31 31 31 31 31 30 28 26 26 25 25
42 39 35 36 33 26 21 24 29 28 31 32 33 33 33 36 35 32 32 29 29 34 27 21 22 28 29 29 29 28 29 29 29 29 28 27 27 27 26 25 25 25 24 24
33 31 21 24 19 23 23 24 26 31 31 30 31 33 33 32 32 32 31 30 30 25 19 16 23 26 28 29 29 28 26 26 26 26 25 25 24 24 24 24 25 23 22 23
25 24 21 20 27 24 25 27 29 30 31 31 32 32 34 31 30 29 29 25 17 18 15 20 25 27 27 27 27 26 26 25 24 24 24 24 24 23 23 24 24 23 23 22
23 21 19 22 21 20 22 23 25 30 29 30 32 32 24 24 23 18 19 16 13 16 20 23 25 24 26 26 26 26 26 25 25 25 24 23 23 22 22 23 23 23 22 21
24 21 24 23 22 22 23 26 25 30 29 27 26 20 19 25 17 15 19 14 17 19 21 22 22 23 23 24 24 25 26 25 25 25 24 24 24 22 20 21 22 23 22 21
Lifted_Index
4 4 4 3 3 3 4 4 5 5 5 5 5 5 5 6 6 5 4 4 3 3 2 3 3 2 1 1 1 2 2 2 2 2 1 1 1 1 1 0 -0 -1 -0 0
4 4 4 4 3 3 3 4 5 6 6 5 5 5 5 5 6 5 4 4 3 2 2 2 2 2 1 0 0 1 1 2 2 2 1 1 1 1 1 0 -0 -1 -0 0
5 5 4 4 4 3 3 4 5 6 6 6 5 5 5 5 5 6 5 4 3 3 2 1 1 1 1 -0 0 0 1 1 2 2 1 1 1 1 1 0 0 -0 -0 0
5 5 5 5 4 4 3 4 5 6 6 6 6 6 5 4 5 5 5 5 4 3 2 1 1 1 1 0 0 0 0 1 2 2 1 1 0 0 0 0 0 -0 -0 -0
6 6 6 5 5 4 4 4 5 6 6 6 6 6 5 4 4 5 5 5 4 3 3 1 0 -0 1 1 1 0 0 1 1 1 1 1 0 0 0 -0 -0 -0 -0 -0
7 7 7 6 6 5 4 4 5 5 6 6 6 5 5 4 4 4 4 4 4 3 2 0 -1 -1 0 1 1 1 1 1 1 1 1 1 1 1 1 0 -0 -0 -0 -0
7 7 7 7 7 6 5 4 4 4 5 5 5 5 5 5 4 4 3 3 4 3 1 -1 -1 -1 0 1 2 1 1 1 1 0 0 1 2 2 1 1 1 1 0 0
7 7 7 7 7 6 5 5 4 3 3 3 4 4 4 4 3 3 3 3 3 2 1 -0 -1 -0 0 1 1 2 1 0 0 0 0 1 2 2 1 1 1 1 1 1
6 6 6 6 6 5 5 4 4 3 2 2 2 2 2 2 2 3 3 2 2 1 1 1 0 0 0 1 1 1 1 1 0 0 0 1 2 1 0 0 1 1 1 0
3 3 3 4 4 4 4 4 3 3 2 1 1 1 1 1 1 2 2 2 1 1 1 1 1 1 0 1 1 1 1 1 1 0 0 1 1 1 0 1 1 1 -0 -0
1 1 1 1 2 2 3 3 3 3 2 1 0 0 0 0 0 1 1 1 0 0 1 1 1 1 1 1 1 1 1 1 1 1 0 0 0 -0 -0 0 1 -0 -1 -1
1 1 0 0 0 1 1 2 3 2 1 0 -0 -0 -0 -0 -0 -0 0 0 -0 -0 0 1 1 1 1 2 2 1 1 1 1 1 1 0 -0 -0 -0 0 -0 -1 -1 -2
0 0 0 -0 -0 -0 1 2 2 2 1 1 0 -0 -0 -0 -0 -1 -0 -0 -0 -0 -0 0 0 1 1 1 1 1 0 0 0 0 0 1 0 0 0 0 0 -1 -1 -1
0 0 0 -0 -0 -0 1 2 2 2 1 1 0 -0 -0 0 0 -0 -0 -0 -1 -1 -0 0 0 0 0 1 1 0 0 0 0 0 0 1 1 1 1 1 1 0 -0 0
0 0 0 -0 -0 -0 1 1 1 1 1 1 0 0 0 0 0 0 0 -0 -0 -0 0 0 0 0 0 -0 -0 -0 0 1 1 1 1 0 0 0 1 1 1 1 1 0
1 1 0 0 0 0 1 1 1 1 1 0 1 0 0 0 0 0 0 0 0 0 0 0 0 0 -0 -0 -0 0 0 0 1 1 0 0 -0 0 1 1 1 1 1 1
2 2 1 1 1 1 1 1 1 1 1 1 1 1 1 1 1 1 1 1 1 1 1 1 1 0 -0 -0 0 0 0 0 0 0 0 0 0 0 0 1 1 1 2 1
2 2 2 2 2 1 1 1 1 1 1 1 2 1 1 1 1 1 1 1 1 1 1 1 1 1 0 0 1 1 1 0 0 0 1 0 0 0 0 0 0 1 1 1
2 2 2 2 2 2 2 2 2 2 2 2 2 2 1 1 2 2 2 2 2 2 2 1 1 1 1 1 1 1 1 1 1 1 0 0 -0 -0 -0 0 -0 0 0 0
2 2 2 2 3 2 2 2 2 2 2 2 2 2 2 2 2 2 2 2 2 2 1 1 1 1 2 2 2 2 2 2 1 1 1 0 -0 -0 0 0 0 -0 -0 -0
3 3 3 3 3 3 3 2 2 2 2 2 2 2 2 2 2 2 2 1 1 1 1 1 1 2 3 4 3 3 4 3 3 2 2 1 1 1 1 1 1 1 1 1
3 3 3 3 3 3 3 3 3 2 2 2 2 2 2 2 2 1 1 1 1 1 1 1 2 4 6 6 6 5 5 5 5 5 4 4 4 4 4 4 4 4 4 4
3 4 4 4 3 3 3 3 3 3 2 2 2 2 2 2 2 1 1 1 1 1 1 2 4 7 9 9 8 8 7 7 7 7 7 7 7 7 7 7 8 8 8 9
4 4 4 4 4 4 4 3 3 3 3 3 3 2 2 2 2 2 1 1 1 2 2 4 7 10 11 10 10 10 9 9 9 9 10 10 10 10 11 11 12 12 12 12
5 4 4 4 4 4 4 3 3 3 4 4 4 3 2 2 2 2 2 2 2 3 5 8 11 12 12 11 11 11 11 11 11 12 12 12 12 12 13 14 14 15 15 15
5 6 6 6 5 4 4 4 4 4 5 5 4 3 3 3 2 3 3 3 4 6 9 12 13 13 13 12 12 13 13 13 13 13 14 14 14 14 14 15 16 16 16 16
6 7 8 7 5 5 4 4 5 6 6 5 4 3 4 4 3 3 4 5 7 10 12 14 14 13 13 13 13 14 14 14 14 14 15 15 15 15 15 15 16 17 17 17